SN73XP EPBC-ZZZZ

Flight info

Callsign SN73XP
Flight time N/A
Altitude 1500
Route DCT EPWAZ DCT EPBCN DCT EPDEL DCT EPDEG DCT EPDEP DCT 5029N02302E
Aircraft H60/M-SDFGIRY/S

Departure

Time 2026-05-06 10:38
Airport Warsaw Babice Airport (EPBC)

Arrival

Time N/A
Airport ZZZZ
Time Latitude Longitude Altitude Speed Heading
2026-05-06 10:38 52.10395 21.23488 1515 ft 152 kts 149°
2026-05-06 10:38 52.09550 21.24537 1515 ft 150 kts 149°
2026-05-06 10:38 52.08708 21.25563 1514 ft 150 kts 149°
2026-05-06 10:39 52.07868 21.26567 1514 ft 150 kts 149°
2026-05-06 10:39 52.07028 21.27554 1498 ft 150 kts 149°
2026-05-06 10:39 52.06186 21.28547 1505 ft 151 kts 149°
2026-05-06 10:39 52.05342 21.29532 1500 ft 150 kts 149°
2026-05-06 10:40 52.04492 21.30522 1505 ft 150 kts 149°
2026-05-06 10:40 52.03646 21.31511 1509 ft 148 kts 149°
2026-05-06 10:40 52.02803 21.32499 1515 ft 151 kts 149°
2026-05-06 10:40 52.01971 21.33470 1512 ft 150 kts 149°
2026-05-06 10:41 52.01104 21.34487 1513 ft 150 kts 149°
2026-05-06 10:41 52.00258 21.35477 1497 ft 149 kts 149°
2026-05-06 10:41 51.99416 21.36467 1504 ft 150 kts 149°
2026-05-06 10:41 51.98576 21.37462 1511 ft 150 kts 149°
2026-05-06 10:42 51.97735 21.38448 1504 ft 149 kts 149°
2026-05-06 10:42 51.96901 21.39426 1504 ft 150 kts 149°
2026-05-06 10:42 51.96057 21.40416 1509 ft 149 kts 149°
2026-05-06 10:42 51.95203 21.41407 1511 ft 151 kts 149°
2026-05-06 10:43 51.94346 21.42400 1506 ft 151 kts 149°
2026-05-06 10:43 51.93484 21.43388 1518 ft 153 kts 149°
2026-05-06 10:43 51.92610 21.44376 1514 ft 153 kts 149°
2026-05-06 10:44 51.90862 21.46351 1513 ft 153 kts 149°
2026-05-06 10:44 51.89995 21.47409 1526 ft 155 kts 146°
2026-05-06 10:44 51.89155 21.48468 1512 ft 154 kts 146°
2026-05-06 10:44 51.88329 21.49524 1511 ft 154 kts 146°
2026-05-06 10:45 51.87496 21.50603 1510 ft 154 kts 146°
2026-05-06 10:45 51.86662 21.51687 1510 ft 153 kts 146°
2026-05-06 10:45 51.85833 21.52774 1509 ft 154 kts 146°
2026-05-06 10:45 51.85003 21.53858 1515 ft 154 kts 146°
2026-05-06 10:46 51.84174 21.54944 1512 ft 152 kts 146°
2026-05-06 10:46 51.83344 21.56028 1510 ft 154 kts 146°
2026-05-06 10:46 51.82519 21.57114 1515 ft 153 kts 146°
2026-05-06 10:46 51.81699 21.58178 1517 ft 154 kts 146°
2026-05-06 10:47 51.80878 21.59250 1506 ft 153 kts 146°
2026-05-06 10:47 51.80057 21.60316 1502 ft 152 kts 146°
2026-05-06 10:47 51.79235 21.61378 1504 ft 151 kts 146°
2026-05-06 10:47 51.78408 21.62443 1502 ft 152 kts 147°
2026-05-06 10:48 51.77588 21.63505 1506 ft 151 kts 146°
2026-05-06 10:48 51.76768 21.64562 1504 ft 151 kts 146°
2026-05-06 10:48 51.75946 21.65615 1510 ft 150 kts 146°
2026-05-06 10:48 51.75130 21.66668 1504 ft 150 kts 147°
2026-05-06 10:49 51.74312 21.67723 1515 ft 150 kts 147°
2026-05-06 10:49 51.73493 21.68758 1513 ft 150 kts 146°
2026-05-06 10:49 51.72669 21.69804 1508 ft 149 kts 147°
2026-05-06 10:49 51.71852 21.70858 1523 ft 150 kts 146°
2026-05-06 10:50 51.71034 21.71914 1777 ft 150 kts 146°
2026-05-06 10:50 51.70227 21.72955 1777 ft 150 kts 146°
2026-05-06 10:50 51.69397 21.74024 1791 ft 151 kts 146°
2026-05-06 10:50 51.68579 21.75074 1787 ft 150 kts 146°
2026-05-06 10:51 51.67776 21.76111 1783 ft 150 kts 146°
2026-05-06 10:51 51.66949 21.77174 1784 ft 150 kts 146°
2026-05-06 10:51 51.66141 21.78210 1782 ft 151 kts 146°
2026-05-06 10:51 51.65322 21.79261 1796 ft 151 kts 146°
2026-05-06 10:52 51.64501 21.80298 1800 ft 149 kts 146°
2026-05-06 10:52 51.63529 21.80864 1797 ft 145 kts 166°
2026-05-06 10:52 51.62545 21.81286 1798 ft 145 kts 166°
2026-05-06 10:52 51.61584 21.81793 1797 ft 147 kts 161°
2026-05-06 10:53 51.60619 21.82330 1793 ft 148 kts 161°
2026-05-06 10:53 51.59647 21.82850 1803 ft 146 kts 162°
2026-05-06 10:53 51.58672 21.83355 1810 ft 150 kts 163°
2026-05-06 10:53 51.57704 21.83948 1820 ft 148 kts 159°
2026-05-06 10:54 51.56745 21.84523 1810 ft 148 kts 160°
2026-05-06 10:54 51.55780 21.85083 1810 ft 148 kts 162°
2026-05-06 10:54 51.54811 21.85631 1822 ft 147 kts 162°
2026-05-06 10:54 51.53838 21.86170 1812 ft 149 kts 163°
2026-05-06 10:55 51.52859 21.86702 1816 ft 147 kts 163°
2026-05-06 10:55 51.51872 21.87229 1806 ft 149 kts 163°
2026-05-06 10:55 51.50906 21.87735 1821 ft 146 kts 163°
2026-05-06 10:55 51.49945 21.88231 1824 ft 147 kts 163°
2026-05-06 10:56 51.48981 21.88851 1824 ft 146 kts 159°
2026-05-06 10:56 51.48051 21.89477 1823 ft 145 kts 159°
2026-05-06 10:56 51.47150 21.90184 1803 ft 146 kts 151°
2026-05-06 10:56 51.46415 21.91359 1817 ft 149 kts 139°
2026-05-06 10:57 51.45688 21.92547 1831 ft 149 kts 139°
2026-05-06 10:57 51.44961 21.93736 1831 ft 148 kts 139°
2026-05-06 10:57 51.44233 21.94928 1835 ft 151 kts 139°
2026-05-06 10:57 51.43491 21.96118 1830 ft 151 kts 139°
2026-05-06 10:58 51.42734 21.97327 1835 ft 156 kts 139°
2026-05-06 10:58 51.41976 21.98546 1843 ft 153 kts 139°
2026-05-06 10:58 51.41227 21.99764 1852 ft 152 kts 139°
2026-05-06 10:58 51.40487 22.00971 1844 ft 151 kts 139°
2026-05-06 10:59 51.39751 22.02178 1843 ft 151 kts 139°
2026-05-06 10:59 51.39020 22.03371 1845 ft 151 kts 139°
2026-05-06 10:59 51.38294 22.04552 1849 ft 150 kts 139°
2026-05-06 10:59 51.37565 22.05746 1842 ft 151 kts 139°
2026-05-06 11:00 51.36833 22.06936 1848 ft 151 kts 139°
2026-05-06 11:00 51.36106 22.08137 1858 ft 150 kts 139°
2026-05-06 11:00 51.35373 22.09338 1852 ft 150 kts 139°
2026-05-06 11:00 51.34642 22.10538 1854 ft 151 kts 139°
2026-05-06 11:01 51.33914 22.11713 1861 ft 148 kts 139°
2026-05-06 11:01 51.33195 22.12874 1860 ft 146 kts 139°
2026-05-06 11:01 51.32469 22.14047 1860 ft 149 kts 139°
2026-05-06 11:01 51.31736 22.15232 1855 ft 151 kts 139°
2026-05-06 11:02 51.31005 22.16419 1843 ft 149 kts 139°
2026-05-06 11:02 51.30285 22.17578 1830 ft 149 kts 139°
2026-05-06 11:02 51.29550 22.18742 1823 ft 148 kts 137°
2026-05-06 11:02 51.28666 22.19667 1825 ft 147 kts 152°
2026-05-06 11:03 51.27807 22.20486 1815 ft 147 kts 147°
2026-05-06 11:03 51.26949 22.21394 1800 ft 146 kts 148°
2026-05-06 11:03 51.26089 22.22287 1781 ft 149 kts 148°
2026-05-06 11:03 51.25216 22.23177 1782 ft 149 kts 148°
2026-05-06 11:04 51.24343 22.24051 1777 ft 150 kts 149°
2026-05-06 11:04 51.23474 22.24905 1767 ft 148 kts 150°
2026-05-06 11:04 51.22590 22.25758 1759 ft 148 kts 151°
2026-05-06 11:04 51.21704 22.26596 1751 ft 148 kts 151°
2026-05-06 11:05 51.20811 22.27423 1752 ft 148 kts 152°
2026-05-06 11:05 51.19919 22.28234 1677 ft 148 kts 152°
2026-05-06 11:05 51.19010 22.29044 1479 ft 151 kts 154°
2026-05-06 11:05 51.18108 22.29835 1520 ft 148 kts 153°
2026-05-06 11:06 51.17205 22.30610 1510 ft 147 kts 153°
2026-05-06 11:06 51.16324 22.31467 1501 ft 147 kts 149°
2026-05-06 11:06 51.15451 22.32325 1493 ft 148 kts 150°
2026-05-06 11:06 51.14572 22.33171 1488 ft 148 kts 150°
2026-05-06 11:07 51.13722 22.34088 1495 ft 147 kts 147°
2026-05-06 11:07 51.12871 22.35015 1487 ft 148 kts 147°
2026-05-06 11:07 51.12031 22.35915 1483 ft 148 kts 148°
2026-05-06 11:07 51.11161 22.36828 1482 ft 148 kts 148°
2026-05-06 11:08 51.10299 22.37718 1483 ft 147 kts 149°
2026-05-06 11:08 51.09433 22.38595 1483 ft 147 kts 149°
2026-05-06 11:08 51.08572 22.39451 1485 ft 147 kts 150°
2026-05-06 11:08 51.07700 22.40302 1480 ft 147 kts 150°
2026-05-06 11:09 51.06822 22.41144 1482 ft 148 kts 150°
2026-05-06 11:09 51.05941 22.41975 1488 ft 147 kts 152°
2026-05-06 11:09 51.05110 22.42974 1486 ft 147 kts 144°
2026-05-06 11:09 51.04300 22.43974 1486 ft 150 kts 145°
2026-05-06 11:10 51.03456 22.45002 1492 ft 150 kts 146°
2026-05-06 11:10 51.02622 22.46008 1497 ft 150 kts 146°
2026-05-06 11:10 51.02064 22.46676 1490 ft 150 kts 146°
2026-05-06 11:10 51.01229 22.47665 1495 ft 149 kts 147°
2026-05-06 11:11 51.00392 22.48647 1504 ft 150 kts 147°
2026-05-06 11:11 50.99281 22.49932 1509 ft 149 kts 147°
2026-05-06 11:11 50.98439 22.50892 1513 ft 149 kts 148°
2026-05-06 11:11 50.97590 22.51850 1517 ft 150 kts 148°
2026-05-06 11:12 50.97015 22.52494 1520 ft 150 kts 148°
2026-05-06 11:12 50.96172 22.53428 1528 ft 150 kts 149°
2026-05-06 11:12 50.95317 22.54366 1526 ft 150 kts 149°
2026-05-06 11:12 50.94458 22.55299 1531 ft 150 kts 149°
2026-05-06 11:13 50.93597 22.56223 1535 ft 151 kts 150°
2026-05-06 11:13 50.92736 22.57137 1551 ft 148 kts 149°
2026-05-06 11:13 50.91878 22.58039 1558 ft 148 kts 150°
2026-05-06 11:13 50.91020 22.58932 1546 ft 148 kts 150°
2026-05-06 11:14 50.90158 22.59821 1563 ft 148 kts 150°
2026-05-06 11:14 50.89292 22.60706 1570 ft 148 kts 150°
2026-05-06 11:14 50.88427 22.61626 1574 ft 153 kts 147°
2026-05-06 11:14 50.87601 22.62667 1568 ft 151 kts 144°
2026-05-06 11:15 50.86772 22.63704 1572 ft 153 kts 144°
2026-05-06 11:15 50.85953 22.64722 1567 ft 152 kts 144°
2026-05-06 11:15 50.85104 22.65768 1569 ft 154 kts 144°
2026-05-06 11:15 50.84272 22.66785 1572 ft 151 kts 145°
2026-05-06 11:16 50.83414 22.67736 1568 ft 152 kts 148°
2026-05-06 11:16 50.82547 22.68676 1571 ft 152 kts 149°
2026-05-06 11:16 50.81680 22.69610 1565 ft 152 kts 149°
2026-05-06 11:16 50.80811 22.70538 1567 ft 150 kts 149°
2026-05-06 11:17 50.79937 22.71462 1564 ft 152 kts 150°
2026-05-06 11:17 50.79066 22.72376 1566 ft 150 kts 150°
2026-05-06 11:17 50.78195 22.73284 1558 ft 151 kts 150°
2026-05-06 11:17 50.77321 22.74188 1563 ft 150 kts 151°
2026-05-06 11:18 50.76448 22.75084 1567 ft 152 kts 150°
2026-05-06 11:18 50.75569 22.75979 1559 ft 150 kts 151°
2026-05-06 11:18 50.74690 22.76859 1555 ft 151 kts 151°
2026-05-06 11:18 50.73804 22.77731 1554 ft 151 kts 151°
2026-05-06 11:19 50.72909 22.78597 1556 ft 150 kts 152°
2026-05-06 11:19 50.72012 22.79451 1565 ft 149 kts 152°
2026-05-06 11:19 50.71142 22.80398 1544 ft 153 kts 150°
2026-05-06 11:19 50.70292 22.81411 1550 ft 151 kts 150°
2026-05-06 11:20 50.69468 22.82414 1555 ft 150 kts 150°
2026-05-06 11:20 50.68623 22.83434 1552 ft 150 kts 150°
2026-05-06 11:20 50.67789 22.84429 1553 ft 149 kts 150°
2026-05-06 11:20 50.66962 22.85411 1551 ft 149 kts 150°
2026-05-06 11:21 50.66131 22.86391 1550 ft 148 kts 150°
2026-05-06 11:21 50.65311 22.87357 1539 ft 149 kts 150°
2026-05-06 11:21 50.64479 22.88334 1538 ft 149 kts 150°
2026-05-06 11:21 50.63642 22.89307 1546 ft 149 kts 150°
2026-05-06 11:22 50.62809 22.90276 1554 ft 149 kts 150°
2026-05-06 11:22 50.61969 22.91221 1547 ft 147 kts 151°
2026-05-06 11:22 50.61126 22.92134 1556 ft 142 kts 154°
2026-05-06 11:22 50.60238 22.92933 1542 ft 147 kts 155°
2026-05-06 11:23 50.59357 22.93776 1546 ft 147 kts 155°
2026-05-06 11:23 50.58474 22.94617 1542 ft 149 kts 155°
2026-05-06 11:23 50.57591 22.95458 1552 ft 148 kts 155°
2026-05-06 11:23 50.56725 22.96303 1548 ft 146 kts 155°
2026-05-06 11:24 50.55819 22.97143 1549 ft 155 kts 155°
2026-05-06 11:24 50.54935 22.98015 1546 ft 146 kts 155°
2026-05-06 11:24 50.54091 22.98755 1556 ft 134 kts 159°
2026-05-06 11:24 50.53229 22.99452 1533 ft 158 kts 159°
2026-05-06 11:25 50.52190 23.00299 1516 ft 171 kts 158°
2026-05-06 11:25 50.51216 23.01156 1543 ft 151 kts 157°
2026-05-06 11:25 50.50306 23.01934 1537 ft 151 kts 158°
2026-05-06 11:25 50.49660 23.02797 1805 ft 90 kts 142°
2026-05-06 11:26 50.49322 23.03345 1657 ft 56 kts 150°
2026-05-06 11:26 50.49067 23.03788 1524 ft 50 kts 155°
2026-05-06 11:26 50.48799 23.03992 1339 ft 27 kts 169°
2026-05-06 11:26 50.48632 23.03988 1035 ft 23 kts 179°
2026-05-06 11:27 50.48537 23.03992 914 ft 22 kts 165°
2026-05-06 11:27 50.48502 23.03932 822 ft 3 kts 169°
2026-05-06 11:27 50.48493 23.03930 813 ft 0 kts 172°
2026-05-06 11:28 50.48496 23.03910 829 ft 8 kts 162°
2026-05-06 11:28 50.48492 23.03892 821 ft 1 kts 175°
2026-05-06 11:28 50.48487 23.03890 814 ft 1 kts 180°
2026-05-06 11:29 50.48486 23.03890 815 ft 4 kts 164°
2026-05-06 11:29 50.48492 23.03887 813 ft 3 kts 174°
2026-05-06 11:29 50.48486 23.03887 814 ft 2 kts 152°
2026-05-06 11:29 50.48486 23.03888 815 ft 1 kts 163°
2026-05-06 11:30 50.48483 23.03891 849 ft 2 kts 166°
2026-05-06 11:30 50.48397 23.03888 931 ft 24 kts 263°
2026-05-06 11:30 50.48406 23.03779 857 ft 23 kts 344°
2026-05-06 11:30 50.48396 23.03720 842 ft 46 kts 20°
2026-05-06 11:31 50.48363 23.04031 1063 ft 40 kts 230°
2026-05-06 11:31 50.48329 23.04067 1002 ft 27 kts 262°
2026-05-06 11:31 50.48361 23.03792 913 ft 23 kts 323°
2026-05-06 11:31 50.48410 23.03768 811 ft 4 kts 320°
2026-05-06 11:32 50.48435 23.03683 1010 ft 19 kts
2026-05-06 11:32 50.48586 23.03697 1300 ft 42 kts 52°
2026-05-06 11:32 50.48702 23.04336 1628 ft 71 kts 109°
2026-05-06 11:32 50.48203 23.04837 1361 ft 99 kts 171°
2026-05-06 11:33 50.47623 23.05023 1796 ft 72 kts 178°
2026-05-06 11:33 50.47086 23.05084 1477 ft 93 kts 178°
2026-05-06 11:33 50.46435 23.05230 1199 ft 91 kts 179°
2026-05-06 11:33 50.45791 23.05305 1002 ft 89 kts 189°
2026-05-06 11:34 50.45358 23.05031 1368 ft 47 kts 260°
2026-05-06 11:34 50.45306 23.04596 1510 ft 56 kts 304°
2026-05-06 11:34 50.45383 23.04385 1524 ft 74 kts 301°
2026-05-06 11:34 50.45756 23.03789 1962 ft 75 kts 10°
2026-05-06 11:35 50.46285 23.03479 1913 ft 87 kts 335°
2026-05-06 11:35 50.46959 23.03412 1455 ft 105 kts 15°
2026-05-06 11:35 50.47642 23.03686 1301 ft 85 kts 17°
2026-05-06 11:35 50.48117 23.03921 1097 ft 60 kts 326°
2026-05-06 11:36 50.48347 23.03964 992 ft 28 kts 335°
2026-05-06 11:36 50.48385 23.03775 891 ft 10 kts 309°
2026-05-06 11:36 50.48432 23.03784 849 ft 6 kts 303°
2026-05-06 11:36 50.48463 23.03720 937 ft 18 kts 330°
2026-05-06 11:37 50.48539 23.04011 1023 ft 36 kts 110°
2026-05-06 11:37 50.48266 23.04389 1426 ft 80 kts 165°
2026-05-06 11:37 50.47669 23.04861 1422 ft 108 kts 149°
2026-05-06 11:37 50.47044 23.05525 1476 ft 101 kts 187°
2026-05-06 11:38 50.46486 23.05630 1227 ft 65 kts 226°
2026-05-06 11:38 50.46190 23.05174 1054 ft 64 kts 244°
2026-05-06 11:38 50.46209 23.04645 1204 ft 46 kts 321°
2026-05-06 11:38 50.46755 23.04346 1284 ft 121 kts 334°
2026-05-06 11:39 50.47587 23.04140 1375 ft 109 kts 339°
2026-05-06 11:39 50.48197 23.03961 1374 ft 74 kts 329°
2026-05-06 11:39 50.48483 23.03771 994 ft 19 kts 223°
2026-05-06 11:39 50.48440 23.03730 827 ft 8 kts 147°
2026-05-06 11:40 50.48333 23.03821 966 ft 38 kts 146°
2026-05-06 11:40 50.48054 23.04294 1493 ft 72 kts 66°
2026-05-06 11:40 50.48303 23.05185 1751 ft 107 kts 119°
2026-05-06 11:40 50.48175 23.06124 1693 ft 77 kts 158°
2026-05-06 11:41 50.47680 23.06069 1446 ft 88 kts 201°
2026-05-06 11:41 50.47078 23.05976 1448 ft 83 kts 155°
2026-05-06 11:41 50.46573 23.06501 1387 ft 99 kts 116°
2026-05-06 11:41 50.46629 23.07722 1732 ft 134 kts 50°
2026-05-06 11:42 50.47534 23.08417 1764 ft 163 kts 21°
2026-05-06 11:42 50.48523 23.09176 1722 ft 132 kts 85°
2026-05-06 11:42 50.49029 23.10400 1976 ft 120 kts 135°
2026-05-06 11:42 50.48894 23.11538 1547 ft 122 kts 146°
2026-05-06 11:43 50.48327 23.12520 1203 ft 112 kts 179°
2026-05-06 11:43 50.47761 23.12503 1391 ft 78 kts 216°
2026-05-06 11:43 50.47609 23.11638 1354 ft 81 kts 268°
2026-05-06 11:44 50.47265 23.10579 1487 ft 82 kts 216°
2026-05-06 11:44 50.46751 23.09917 1162 ft 91 kts 222°
2026-05-06 11:44 50.46288 23.09254 1391 ft 103 kts 225°
2026-05-06 11:44 50.45978 23.08228 1324 ft 112 kts 277°
2026-05-06 11:45 50.46185 23.07221 1243 ft 75 kts 280°
2026-05-06 11:45 50.46384 23.06650 957 ft 41 kts 315°
2026-05-06 11:45 50.46525 23.06407 1049 ft 56 kts 311°
2026-05-06 11:45 50.47014 23.05697 1307 ft 128 kts 320°
2026-05-06 11:46 50.47663 23.04744 1456 ft 114 kts 320°
2026-05-06 11:46 50.48071 23.04030 1489 ft 61 kts 330°
2026-05-06 11:46 50.48346 23.03697 1152 ft 34 kts 316°
2026-05-06 11:46 50.48470 23.03720 1015 ft 20 kts 318°
2026-05-06 11:47 50.48427 23.03829 919 ft 9 kts 217°
2026-05-06 11:47 50.48394 23.03812 809 ft 5 kts 219°
2026-05-06 11:47 50.48235 23.03786 1006 ft 53 kts 190°
2026-05-06 11:47 50.47736 23.03854 1333 ft 91 kts 158°
2026-05-06 11:48 50.47005 23.04198 1308 ft 120 kts 194°
2026-05-06 11:48 50.46396 23.03937 1237 ft 91 kts 261°
2026-05-06 11:48 50.46170 23.03394 1326 ft 35 kts 15°
2026-05-06 11:48 50.46680 23.03399 1061 ft 117 kts 358°
2026-05-06 11:49 50.47414 23.03626 1554 ft 110 kts 357°
2026-05-06 11:49 50.48095 23.03874 1247 ft 81 kts 335°
2026-05-06 11:49 50.48505 23.04031 1007 ft 30 kts 259°
2026-05-06 11:49 50.48434 23.03837 961 ft 33 kts 248°
2026-05-06 11:50 50.48392 23.03690 954 ft 19 kts 342°
2026-05-06 11:50 50.48466 23.03674 838 ft 3 kts 335°
2026-05-06 11:50 50.48543 23.03542 1128 ft 31 kts 253°
2026-05-06 11:50 50.48278 23.03165 1337 ft 86 kts 174°
2026-05-06 11:51 50.47679 23.03186 1307 ft 71 kts 150°
2026-05-06 11:51 50.47228 23.03510 925 ft 66 kts 207°
2026-05-06 11:51 50.46886 23.03508 1088 ft 58 kts 248°
2026-05-06 11:51 50.46701 23.02898 1171 ft 57 kts 253°
2026-05-06 11:52 50.46700 23.02641 935 ft 15 kts 297°
2026-05-06 11:52 50.46788 23.02456 997 ft 18 kts 82°
2026-05-06 11:52 50.46846 23.02364 1264 ft 35 kts 30°
2026-05-06 11:52 50.47390 23.02767 1227 ft 126 kts 38°
2026-05-06 11:53 50.48032 23.03629 1298 ft 105 kts 48°
2026-05-06 11:53 50.48451 23.04148 1056 ft 62 kts 324°
2026-05-06 11:53 50.48622 23.03982 1002 ft 26 kts 189°
2026-05-06 11:53 50.48418 23.03952 905 ft 13 kts 154°
2026-05-06 11:54 50.48422 23.03933 822 ft 8 kts 334°
2026-05-06 11:54 50.48429 23.03932 812 ft 0 kts 355°